COSMOS 1275 DEB, 12699

Orbit data source: Space-Track

COSMOS 1275 DEB, 12699 is space debris in LEO originally from a launch on Thu, 04 Jun 1981 UTC launched from the Plesetsk Missile And Space Complex (PKMTR). Debris objects in space refer to the collection of defunct objects orbiting the Earth. Examples of debris include non-operational satellites, rocket bodies, and fragments generated from explosions, collisions, or faulty payload assembly.

Loading next visibility...
Identifier
12699, 1981-053AT
Orbit
LEO
Country
Flag of CISCIS
Related business
Manufacturer
Unknown
Mission
Spacecraft
Bus & Motor
Unknown
Mass
Unknown
Launch date (UTC)
1981-06-04 (44 years ago)
Launch vehicle
Unknown
Launch site
Plesetsk Missile And Space Complex (PKMTR)
Object type
Payload
Rocket body
Debris
Shape & HBR
Unknown shape, 0.1 m
Radar Cross Section
Small (<0.1 m²)

Expand to show TLE details & history
Last TLE update: 2 days ago

TLE from 2 days ago
0 COSMOS 1275 DEB
1 12699U 81053AT  25300.56793052  .00001511  00000-0  13106-2 0  9992
2 12699  82.9460 140.6144 0086093   2.2981  25.5118 13.83918721212815
Epoch: 2025-10-27T13:37Z
TLE epoch observation values (Epoch: 2025-10-27T13:37:49.196Z)
Latitude
28.04879°
Longitude
-96.24817°
Altitude
896.626 km
Speed
7.435 km/s
True Right ascension
09h 37m 29s
True Declination
27° 54' 33"
Sunlit
Object was in daylight at epoch
Visualization orbit readout
Latitude
Unknown
Longitude
Unknown
Altitude
Unknown
Speed
Unknown
Apparent Right ascension
Unknown
Apparent Declination
Unknown
Sunlit
N/A
Visualization observer readout
Local Sidereal Time
12:03:15
Azimuth
Unknown
Elevation
Unknown
Doppler factor
Unknown
Orbital elements
Apogee altitude
1,010.222 km
Perigee altitude
884.091 km
Semi-major axis
7,325.293 km
Eccentricity
0.00861
Inclination
82.946°
RAAN
140.6144°
Arg. of periapsis
2.2981°
True anomaly
25.94087°
Mean anomaly
25.5118°
Eccentric anomaly
25.72591°
Mean motion
3.46183 °/min
Orbital period
103.99 mins
BSTAR
0.0013106
Loading maneuver chart data...
Computing Atmospheric mass density...
Loading historical data...
Loading historical data...
Loading historical data...
Loading historical data...
Loading historical data...
Loading historical data...
Loading historical data...

Documentation

Showing up to 5 results
|